CAPE
1190 1145 1092 1186 1233 1416 1467 1585 1418 1324 1241 1028 821 955 1167 1280 1200 1016 877 754 594 302 0 0 0 0 205 290 313 292 351 350 382 437 545 598 775 1242 1310 1158 1028 1126 696 621 609 551 334 374 284 305 203 133 105 58 251 132 201 277 308 173 48 31 18 8 0 0 0 0 0 0 0 0 0 0 0 0 0 0 0 0 0 1 1 1 0
1079 1240 1120 1133 1106 1241 1418 1484 1408 1290 1222 1053 881 847 858 867 957 918 741 620 578 468 285 201 0 0 0 215 318 290 353 349 398 451 474 627 817 940 1388 1152 975 876 847 669 629 654 501 384 381 338 252 208 160 122 59 48 24 312 354 279 153 37 24 8 0 0 0 0 0 0 0 0 0 0 0 0 0 0 0 1 0 0 0 0 0
972 1066 1201 1173 1084 1066 1149 1158 1139 1190 1173 1143 1077 1059 1001 937 794 688 582 566 543 482 427 210 0 0 10 56 236 18 358 444 475 498 473 628 790 784 1016 1168 765 665 675 695 802 703 709 551 363 326 282 195 172 178 110 98 50 177 438 420 192 74 29 6 0 0 0 0 0 0 0 0 0 0 0 0 0 0 0 0 0 0 0 0 0
1068 1049 1142 1069 1117 1049 989 992 995 944 913 940 1022 1039 1002 860 700 622 571 569 542 526 434 55 2 269 62 69 84 2 379 503 514 523 501 583 696 712 738 726 808 729 672 534 699 963 770 752 686 502 377 302 205 220 186 132 86 48 244 577 266 132 43 12 2 0 1 0 0 1 0 0 1 0 0 0 0 0 0 0 0 0 0 0 0
1057 997 1108 1205 1182 1003 850 846 818 898 909 791 791 907 930 964 894 713 580 584 526 468 363 0 245 292 243 236 252 171 393 550 544 512 496 490 556 622 606 581 653 1010 770 745 670 868 941 877 820 727 556 359 255 220 236 193 120 66 78 635 352 246 178 62 8 0 0 0 0 1 1 2 1 1 0 0 0 0 0 0 0 0 0 0 0
1072 1011 917 1111 1123 770 731 779 853 1080 1014 914 964 972 993 946 813 545 692 586 561 477 383 100 51 218 321 264 275 258 402 559 549 490 456 476 484 544 517 559 670 908 892 1230 1004 810 924 1103 948 917 796 477 366 251 237 203 231 119 61 447 485 390 350 234 109 26 2 2 2 3 3 5 2 2 0 0 0 0 0 0 0 0 0 0 0
1038 1037 934 960 975 752 761 899 1103 1387 1252 1214 1182 1107 1080 966 636 511 652 637 582 498 434 210 26 34 369 319 317 321 326 416 466 472 470 517 487 555 534 492 650 869 981 914 1051 1174 844 936 1260 1101 946 715 420 265 252 214 241 183 69 131 405 390 399 321 263 183 77 7 2 6 7 6 4 3 2 0 0 0 0 0 0 0 0 0 0
1062 1094 1058 859 866 812 892 1090 1354 1517 1469 1580 1464 1281 1119 986 774 586 540 629 607 534 512 454 190 347 339 398 359 361 373 356 346 485 504 568 533 519 484 502 502 738 1082 972 937 1002 1070 937 1084 1138 1248 1002 695 484 514 393 277 274 170 127 254 274 275 261 287 306 176 76 15 7 5 6 5 6 2 1 0 0 0 0 0 0 0 0 0
1091 1050 1002 879 835 869 889 1014 1271 1426 1612 1525 1353 1386 1175 1039 868 654 590 614 586 574 571 519 420 386 358 341 385 419 396 412 394 358 333 517 566 545 498 505 535 886 753 962 953 967 1036 1084 1128 1123 1196 1143 1120 877 863 816 571 311 356 248 195 329 269 214 174 297 274 214 72 25 4 4 3 6 3 2 1 1 0 0 0 0 0 0 0
978 992 982 936 882 926 884 858 1258 1363 1523 1418 1368 1416 1310 1083 961 708 604 487 530 541 534 511 447 388 382 204 272 349 418 404 394 378 329 278 456 494 579 592 626 648 625 672 841 894 945 1020 1062 1142 1179 1091 969 1200 1020 965 853 743 470 476 380 331 371 290 191 160 308 300 253 92 8 0 1 2 5 1 1 2 0 0 0 0 0 0 0
978 975 964 911 964 964 1174 1055 1154 1292 1110 1084 1039 1365 1335 1182 1074 732 560 474 469 524 503 447 479 400 383 335 269 2 1 41 223 302 219 271 372 296 432 403 448 482 497 488 553 685 763 848 957 1006 1003 1059 1073 1124 1357 1171 1106 946 691 619 734 542 428 357 290 154 131 309 317 199 41 0 0 0 1 3 2 1 3 1 1 0 0 0 0
784 898 900 931 982 1172 1192 972 1075 1044 1043 1011 1029 1149 1286 1213 1052 792 659 692 656 677 690 565 424 410 527 562 215 46 8 113 8 20 6 9 19 232 292 264 265 331 380 394 481 483 498 651 813 895 931 956 1008 1062 1120 1208 1215 1377 1099 857 834 895 663 445 429 385 190 187 314 308 123 4 0 0 0 2 6 2 2 2 1 0 1 0 0
651 723 900 1005 951 794 938 884 931 990 1064 1028 979 998 1015 785 928 805 798 781 823 882 838 620 440 380 248 317 117 363 358 27 0 0 4 4 20 18 8 0 198 307 344 362 445 548 563 563 590 716 813 880 934 984 1018 1056 1042 1120 1088 1114 1089 1119 1041 695 520 480 422 195 228 317 237 62 0 0 0 1 3 5 3 4 1 0 1 0 0
440 435 475 935 778 746 845 774 714 944 923 834 912 864 973 853 783 746 824 811 773 728 535 633 561 520 496 44 0 106 218 433 328 0 0 0 1 0 0 12 10 39 188 284 295 289 378 501 566 550 565 660 816 863 909 963 1008 1002 1036 1210 1312 1197 969 975 938 658 640 481 247 250 368 173 34 0 0 0 2 3 5 4 1 1 1 0 1
636 512 550 1037 947 1000 880 1004 868 802 816 665 755 805 876 813 718 697 812 739 702 705 638 581 435 548 260 0 63 0 132 0 236 484 357 0 5 9 4 2 0 1 143 351 237 260 304 344 584 743 731 699 647 674 784 860 903 930 970 1185 1264 1412 1520 1214 961 880 835 798 524 330 413 330 130 17 0 0 0 1 2 2 0 0 0 0 1
789 526 803 1055 1136 1173 927 899 869 824 862 891 949 1024 812 540 718 724 657 726 668 578 646 552 390 390 411 10 0 0 0 0 1 0 0 215 11 0 107 62 0 43 0 17 145 220 90 102 529 292 661 642 654 642 586 539 658 799 876 897 909 1243 1518 1514 1168 1076 991 800 815 573 388 501 280 114 36 10 0 0 1 1 1 0 0 0 0
542 568 771 959 1010 972 926 964 991 893 917 915 975 994 916 820 764 774 631 556 539 496 527 425 298 0 14 0 0 0 0 2 0 0 204 0 4 0 770 18 82 87 83 96 236 353 212 171 56 51 105 208 337 554 422 378 396 455 721 772 806 835 1006 1432 1536 1284 997 998 980 892 683 483 545 287 139 61 16 0 1 2 1 1 0 0 0
254 478 635 851 935 980 925 817 805 785 732 785 826 807 863 848 737 748 642 549 533 460 462 492 163 162 19 0 0 15 15 5 1 2 0 449 243 0 0 135 13 0 29 123 0 18 139 486 243 1 0 1 21 86 75 230 276 262 285 382 504 665 734 854 1347 1662 1276 773 811 902 900 788 734 492 297 146 82 30 6 0 1 0 1 2 1
0 151 392 469 457 491 505 438 458 554 644 614 682 777 746 736 613 503 587 546 384 322 22 389 374 425 2 0 41 232 8 6 8 4 83 132 200 249 240 178 273 156 83 0 0 0 0 0 0 52 113 129 45 33 76 106 103 168 255 270 353 501 550 591 623 1149 1568 1040 1063 922 960 957 826 709 467 279 155 100 52 19 6 1 1 2 2
0 0 0 0 0 0 0 0 331 565 699 586 542 623 588 661 635 609 513 417 370 318 391 364 426 410 41 350 261 420 342 18 31 0 0 1 0 0 45 207 114 35 48 37 1 0 0 0 0 0 0 0 0 0 14 25 70 100 63 119 121 243 341 476 421 558 610 1235 1068 800 918 1036 1067 891 584 516 328 154 131 93 70 36 6 3 3
0 0 0 0 0 0 0 0 0 443 133 110 418 474 434 0 98 370 486 484 454 348 387 438 379 474 423 400 354 203 0 155 295 109 0 0 0 0 0 0 0 0 0 0 0 0 0 0 0 0 0 0 0 0 10 44 69 85 106 42 33 0 172 274 340 389 383 373 479 839 709 819 851 675 720 648 593 338 429 359 186 146 94 26 11
0 0 0 0 0 0 0 0 0 0 0 0 0 0 0 0 0 0 0 0 21 265 306 331 358 321 337 390 331 270 294 126 136 0 0 0 14 0 0 0 0 0 0 0 0 0 0 0 0 0 0 0 0 0 0 1 28 84 85 49 78 179 212 269 289 337 316 274 396 249 411 324 563 719 750 681 602 654 559 471 380 195 166 256 107
0 0 0 0 0 0 0 0 0 0 0 0 0 0 0 0 0 0 0 0 0 0 0 0 0 0 0 202 304 194 34 0 0 0 0 0 0 0 0 0 0 0 0 0 0 0 0 0 0 0 0 0 0 0 0 0 37 104 125 143 144 87 109 126 210 250 159 57 232 26 98 429 668 567 569 614 667 534 487 453 429 390 326 365 356
0 0 0 0 0 0 0 0 0 0 0 0 0 0 0 0 0 0 0 0 0 0 0 0 0 0 0 0 0 0 0 0 0 0 0 0 0 0 0 0 0 0 0 0 0 0 0 0 0 0 0 0 0 0 0 0 0 149 158 187 178 216 272 308 281 235 245 276 225 184 335 415 347 399 457 498 498 392 423 524 448 417 575 463 523
0 0 0 0 0 0 0 0 0 0 0 0 0 0 0 0 0 0 0 0 0 0 0 0 0 0 0 0 0 0 0 0 0 0 0 0 0 0 0 0 0 0 0 0 0 0 0 0 0 0 0 0 0 0 0 0 0 64 156 155 202 204 234 168 127 67 27 7 58 43 0 251 562 574 579 526 410 387 386 416 348 365 486 565 484
0 0 0 0 0 0 0 0 0 0 0 0 0 0 0 0 0 0 0 0 0 0 0 0 0 0 0 0 0 0 0 0 0 0 0 0 0 0 0 0 0 0 0 0 0 0 0 0 0 0 0 0 0 0 0 0 0 6 70 125 114 160 144 119 80 25 24 11 10 5 0 0 84 223 402 572 466 509 519 402 318 369 470 508 468
0 0 0 0 0 0 0 0 0 0 0 0 0 0 0 0 0 0 0 0 0 0 0 0 0 0 0 0 0 0 0 0 0 0 0 0 0 0 0 0 0 0 0 0 0 0 0 0 0 0 0 0 0 0 0 0 0 0 0 72 141 138 138 134 68 57 32 10 7 8 1 0 0 0 0 0 0 300 341 0 0 0 0 335 359
0 0 0 0 0 0 0 0 0 0 0 0 0 0 0 0 0 0 0 0 0 0 0 0 0 0 0 0 0 0 0 0 0 0 0 0 0 0 0 0 0 0 0 0 0 0 0 0 0 0 0 0 0 0 0 0 0 0 0 5 42 84 106 109 84 55 42 24 14 16 24 4 0 0 0 0 0 0 0 0 0 0 0 0 122
0 0 0 0 0 0 0 0 0 0 0 0 0 0 0 0 0 0 0 0 0 0 0 0 0 0 0 0 0 0 0 0 0 0 0 0 0 0 0 0 0 0 0 0 0 0 0 0 0 0 0 0 0 0 0 0 0 0 0 0 24 54 76 98 84 54 20 0 0 0 0 0 0 0 0 0 0 0 0 0 0 0 0 0 0
0 0 0 0 0 0 0 0 0 0 0 0 0 0 0 0 0 0 0 0 0 0 0 0 0 0 0 0 0 0 0 0 0 0 0 0 0 0 0 0 0 0 0 0 0 0 0 0 0 0 0 0 0 0 0 0 0 0 0 0 0 16 51 49 43 30 5 3 3 0 0 0 0 0 0 0 0 0 0 0 0 0 0 0 0
0 0 0 0 0 0 0 0 0 0 0 0 0 0 0 0 0 0 0 0 0 0 0 0 0 0 0 0 0 0 0 0 0 0 0 0 0 0 0 0 0 0 0 0 0 0 0 0 0 0 0 0 0 0 0 0 0 0 0 0 0 0 0 0 0 0 0 0 0 0 0 0 0 0 0 0 0 0 0 0 0 0 0 0 0
0 0 0 0 0 0 0 0 0 0 0 0 0 0 0 0 0 0 0 0 0 0 0 0 0 0 0 0 0 0 0 0 0 0 0 0 0 0 0 0 0 0 0 0 0 0 0 0 0 0 0 0 0 0 0 0 0 0 0 0 0 0 0 0 0 0 0 0 0 0 0 0 0 0 0 0 0 0 0 0 0 0 0 0 0
0 0 0 0 0 0 0 0 0 0 0 0 0 0 0 0 0 0 0 0 0 0 0 0 0 0 0 0 0 0 0 0 0 0 0 0 0 0 0 0 0 0 0 0 0 0 0 0 0 0 0 0 0 0 0 0 0 0 0 0 0 0 0 0 0 0 0 0 0 0 0 0 0 0 0 0 0 0 0 0 0 0 0 0 0
0 0 0 0 0 0 0 0 0 0 0 0 0 0 0 0 0 0 0 0 0 0 0 0 0 0 0 0 0 0 0 0 0 0 0 0 0 0 0 0 0 0 0 0 0 0 0 0 0 0 0 0 0 0 0 0 0 0 0 0 0 0 0 0 0 0 0 0 0 0 0 0 0 0 0 0 0 0 0 0 0 0 0 0 0
0 0 0 0 0 0 0 0 0 0 0 0 0 0 0 0 0 0 0 0 0 0 0 0 0 0 0 0 0 0 0 0 0 0 0 0 0 0 0 0 0 0 0 0 0 0 0 0 0 0 0 0 0 0 0 0 0 0 0 0 0 0 0 0 0 0 0 0 0 0 0 0 0 0 0 0 0 0 0 0 0 0 0 0 0
0 5 6 3 0 2 0 0 0 0 0 0 0 0 0 0 0 0 0 0 0 0 0 0 0 0 0 0 0 0 0 0 0 0 0 0 0 0 0 0 0 0 0 0 0 0 0 0 0 0 0 0 0 0 0 0 0 0 0 0 0 0 0 0 0 0 0 0 0 0 0 0 0 0 0 0 0 0 0 0 0 0 0 0 0
16 4 8 4 12 33 28 14 10 3 0 1 4 3 0 0 0 0 0 0 0 0 0 0 0 0 0 0 0 0 0 0 0 0 0 0 0 0 0 0 0 0 0 0 0 0 0 0 0 0 0 0 0 0 0 0 0 0 0 0 0 0 0 0 0 0 0 0 0 0 0 0 0 0 0 0 0 0 0 0 0 0 0 0 0
3 2 0 1 1 0 0 0 2 13 15 11 10 8 2 0 0 0 0 0 0 0 0 0 0 0 0 0 0 0 0 0 0 1 0 0 3 2 0 0 0 0 0 0 0 0 0 0 0 0 0 0 0 0 0 0 0 0 0 0 0 0 0 0 0 0 0 0 0 0 0 0 0 0 0 0 0 0 0 0 0 0 0 0 0
0 1 2 2 10 1 12 6 0 0 0 40 106 82 1 2 0 0 0 0 0 0 0 0 0 0 0 0 0 0 0 0 10 6 2 1 0 0 0 0 0 0 0 0 0 0 0 0 0 0 0 0 0 0 0 0 0 0 0 0 0 0 0 0 0 0 0 0 0 0 0 0 0 0 0 0 0 0 0 0 0 0 0 0 0
16 0 0 13 6 15 28 0 11 3 0 217 235 217 212 214 0 0 0 12 42 222 0 228 225 218 58 119 89 0 0 56 36 17 6 9 9 2 0 0 0 0 0 0 0 0 0 0 0 0 0 0 0 0 0 0 0 0 0 0 0 0 0 0 0 0 0 0 0 0 0 0 0 0 0 0 0 0 0 0 0 0 0 0 0
0 0 0 5 11 15 153 202 12 10 11 259 318 317 309 296 270 257 228 208 218 201 81 213 247 227 33 119 0 0 0 87 56 28 5 5 6 7 5 2 0 0 0 0 0 0 0 0 0 0 0 0 0 0 0 0 0 0 0 0 0 0 0 0 0 0 0 0 0 0 0 0 0 0 0 0 0 0 0 0 0 0 0 0 0
15 24 14 3 0 180 236 242 0 7 16 218 374 382 366 364 326 309 290 243 8 1 178 255 278 0 0 0 0 0 0 72 86 49 23 6 2 2 5 12 3 0 0 0 0 0 0 0 0 0 0 0 0 0 0 0 0 0 0 0 0 0 0 0 0 0 0 0 0 0 0 0 0 0 0 0 0 0 0 0 0 0 0 0 0
5 213 292 51 64 0 0 136 0 0 267 324 303 274 218 44 0 0 132 263 281 300 318 313 321 327 329 309 255 226 115 49 110 57 18 7 5 9 14 16 12 7 1 0 0 0 0 0 0 0 0 0 0 0 0 0 0 0 0 0 0 0 0 0 0 0 0 0 0 0 0 0 0 0 0 0 0 0 0 0 0 0 0 0 0
113 211 490 444 374 258 132 98 226 376 446 472 538 578 612 630 584 520 475 502 510 494 496 476 437 398 351 329 289 246 197 155 104 61 15 10 12 14 13 14 10 17 3 2 0 0 0 0 0 0 0 0 0 0 0 0 0 0 0 0 0 0 0 0 0 0 0 0 0 0 0 0 0 0 0 0 0 0 0 0 0 0 0 0 0
15 16 20 219 206 80 16 228 414 712 815 903 882 720 687 706 781 828 876 870 851 827 762 681 604 522 454 398 344 238 149 78 40 25 17 8 4 17 29 25 24 10 4 4 2 0 0 0 0 0 0 0 0 0 0 0 0 0 0 0 0 0 0 0 0 0 0 0 0 0 0 0 0 0 0 0 0 0 0 0 0 0 0 0 0
445 461 476 450 396 416 506 591 704 778 725 521 300 290 326 339 355 386 487 609 719 744 732 662 571 483 404 367 289 227 136 78 59 34 14 13 19 26 19 10 12 6 4 5 2 0 0 0 0 0 0 0 0 0 0 0 0 0 0 0 0 0 0 0 0 0 0 0 0 0 0 0 0 0 0 0 0 0 0 0 0 0 0 0 0
295 265 329 347 449 550 648 779 844 741 442 34 0 0 0 0 0 128 253 369 477 569 610 613 607 545 457 384 292 196 84 31 6 3 8 3 11 18 13 9 4 2 2 0 0 0 0 0 0 0 0 0 0 0 0 0 0 0 0 0 0 0 0 0 0 0 0 0 0 0 0 0 0 0 0 0 0 0 0 0 0 0 0 0 0
0 0 0 172 361 523 728 792 785 618 336 236 174 118 85 0 0 0 116 211 288 361 390 370 329 285 264 211 131 79 58 44 38 31 27 15 7 3 1 1 0 0 0 0 0 0 0 0 0 0 0 0 0 0 0 0 0 0 0 0 0 0 0 0 0 0 0 0 0 0 0 0 0 0 0 0 0 0 0 0 0 0 0 0 0
0 0 131 157 228 298 419 510 516 452 356 282 241 215 190 0 0 0 0 74 121 120 106 0 0 0 0 0 18 3 7 19 14 11 14 12 6 7 4 0 0 0 0 0 0 0 0 0 0 0 0 0 0 0 0 0 0 0 0 0 0 0 0 0 0 0 0 0 0 0 0 0 0 0 0 0 0 0 0 0 0 0 0 0 0
0 0 0 19 138 180 225 272 268 290 246 215 202 221 203 15 0 0 0 0 0 0 0 0 0 0 0 0 0 4 3 3 4 4 7 8 6 0 0 0 2 0 1 0 0 0 1 0 0 0 0 0 0 0 0 0 0 0 0 0 0 0 0 0 0 0 0 0 0 0 0 0 0 0 0 0 0 0 0 0 0 0 0 0 0
0 0 0 0 0 75 161 186 232 240 255 245 238 253 209 29 0 0 0 0 0 0 0 0 0 0 0 0 0 0 0 1 4 6 4 2 0 0 0 0 2 5 8 3 0 0 0 0 0 0 0 0 0 0 0 0 0 0 0 0 0 0 0 0 0 0 0 0 0 0 0 0 0 0 3 0 0 0 0 0 0 0 0 0 0
Wind_Speed
17 16 16 15 13 13 12 11 11 10 12 12 11 10 11 13 14 14 15 15 15 15 nan nan nan nan 13 14 16 17 18 18 18 19 22 24 25 25 25 26 25 25 27 26 27 29 29 28 29 29 28 27 26 nan 25 24 24 24 24 24 nan nan nan nan nan nan nan nan nan nan nan nan nan nan nan nan nan nan nan nan nan nan nan nan nan
16 13 14 14 12 12 12 11 11 12 12 9 9 10 10 12 13 13 13 12 13 13 16 15 nan nan nan 14 18 18 19 19 18 18 20 22 23 25 24 26 26 28 29 27 26 27 29 29 29 30 28 28 27 26 nan nan nan 25 24 25 25 nan nan nan nan nan nan nan nan nan nan nan nan nan nan nan nan nan nan nan nan nan nan nan nan
14 7 10 11 11 10 10 10 10 11 12 10 10 9 10 11 11 11 10 10 9 12 13 13 nan nan nan nan 20 nan 20 22 22 22 21 21 22 23 24 24 27 30 31 29 26 27 28 28 29 29 29 28 28 27 25 nan nan 24 24 26 26 nan nan nan nan nan nan nan nan nan nan nan nan nan nan nan nan nan nan nan nan nan nan nan nan
12 8 9 10 10 9 9 11 10 12 12 11 11 10 9 10 11 12 12 12 11 12 14 nan nan 18 nan nan nan nan 20 21 21 23 23 22 22 22 23 25 26 30 32 32 29 28 26 26 27 27 28 29 28 28 28 25 nan nan 24 27 28 26 nan nan nan nan nan nan nan nan nan nan nan nan nan nan nan nan nan nan nan nan nan nan nan
12 9 9 10 10 11 10 11 11 11 11 11 11 11 11 10 11 14 15 16 16 17 17 nan 18 18 19 18 20 19 19 20 21 23 23 23 23 23 23 25 27 27 30 31 31 29 26 25 25 25 25 26 28 28 29 28 26 nan nan 27 30 27 26 nan nan nan nan nan nan nan nan nan nan nan nan nan nan nan nan nan nan nan nan nan nan
11 9 10 10 11 11 10 9 9 10 11 12 12 12 11 12 13 16 17 18 19 19 21 21 nan 19 21 19 20 20 20 20 20 22 23 24 24 23 23 24 26 28 30 29 29 29 26 25 24 23 23 24 25 26 27 28 28 27 nan 27 31 29 27 27 26 nan nan nan nan nan nan nan nan nan nan nan nan nan nan nan nan nan nan nan nan
11 10 10 10 11 10 10 9 11 12 12 13 13 13 13 13 15 17 19 19 20 21 23 23 nan nan 21 21 21 20 21 21 22 23 23 23 25 23 23 23 24 25 27 29 30 29 27 25 23 22 22 22 23 24 25 27 27 28 nan 27 29 30 28 27 28 26 nan nan nan nan nan nan nan nan nan nan nan nan nan nan nan nan nan nan nan
12 11 11 10 10 10 9 11 13 15 15 15 14 13 13 15 14 17 20 19 21 21 22 24 23 24 21 23 22 22 22 21 21 23 23 24 23 23 24 23 23 23 24 26 28 30 28 26 24 22 21 21 21 21 22 24 26 27 28 27 29 29 29 27 27 28 28 nan nan nan nan nan nan nan nan nan nan nan nan nan nan nan nan nan nan
12 11 10 10 10 11 12 13 16 19 17 16 15 13 11 14 15 15 17 18 20 21 21 22 23 22 22 24 23 23 23 21 19 20 24 27 26 24 24 23 22 20 23 24 26 27 28 27 25 24 23 20 21 20 19 20 23 26 27 27 27 29 29 28 27 26 29 30 nan nan nan nan nan nan nan nan nan nan nan nan nan nan nan nan nan
11 11 11 10 10 12 16 21 22 21 20 18 15 11 11 14 16 16 15 18 18 20 20 21 22 22 22 23 23 25 21 18 17 21 23 26 29 27 24 23 22 21 22 23 24 26 28 27 26 25 24 23 22 21 17 18 20 23 26 26 26 28 29 29 28 26 26 29 29 nan nan nan nan nan nan nan nan nan nan nan nan nan nan nan nan
11 9 10 11 14 18 21 21 20 18 21 20 14 12 12 14 16 16 17 17 17 18 20 21 22 22 22 22 24 nan nan nan 17 18 19 24 24 19 19 21 22 21 21 22 23 25 27 29 30 29 27 24 24 22 19 18 17 20 23 25 25 27 28 28 29 28 25 25 27 29 nan nan nan nan nan nan nan nan nan nan nan nan nan nan nan
11 10 11 13 17 20 18 19 18 18 19 14 12 10 11 15 16 18 18 18 19 19 21 21 22 22 20 21 23 nan nan 21 nan nan nan nan nan 18 19 20 20 20 21 21 21 24 26 28 30 30 30 27 24 24 22 21 20 20 19 22 23 25 26 27 28 28 27 25 24 28 30 nan nan nan nan nan nan nan nan nan nan nan nan nan nan
11 12 12 12 15 16 16 17 17 16 15 12 10 13 16 16 16 18 18 17 18 18 20 21 21 20 19 20 20 22 22 nan nan nan nan nan nan nan nan nan 21 21 21 23 24 24 26 28 30 32 32 32 30 26 24 23 22 24 19 20 20 21 24 26 28 28 28 27 26 26 30 nan nan nan nan nan nan nan nan nan nan nan nan nan nan
13 13 13 14 16 15 14 16 17 18 17 15 15 15 17 16 15 20 19 19 18 18 19 21 20 19 19 nan nan 19 19 20 21 nan nan nan nan nan nan nan nan nan 22 24 26 26 28 28 30 32 34 34 33 33 31 29 27 25 24 22 20 19 21 23 25 26 27 27 27 26 31 29 nan nan nan nan nan nan nan nan nan nan nan nan nan
14 14 15 15 16 16 14 15 19 18 18 14 18 15 16 17 18 21 22 21 20 20 21 20 17 19 20 nan nan nan 19 nan 19 19 17 nan nan nan nan nan nan nan 21 24 26 28 30 32 33 32 33 34 34 34 33 32 31 29 28 27 23 21 19 22 23 23 25 26 26 25 28 29 29 nan nan nan nan nan nan nan nan nan nan nan nan
15 15 16 16 16 17 17 17 18 17 17 16 16 17 20 21 21 23 22 23 21 20 21 20 19 20 20 nan nan nan nan nan nan nan nan 15 nan nan 20 nan nan nan nan nan 25 28 nan 33 30 30 32 35 35 34 34 34 31 30 29 29 28 25 21 19 21 22 21 21 22 23 25 28 29 28 nan nan nan nan nan nan nan nan nan nan nan
17 16 16 16 16 17 18 19 19 19 19 19 18 18 21 22 24 24 23 23 24 23 21 23 23 nan nan nan nan nan nan nan nan nan 20 nan nan nan 21 nan nan nan nan nan 26 27 29 29 nan nan 32 32 31 29 30 31 32 34 33 31 30 28 26 22 20 19 20 19 19 19 20 24 26 27 27 nan nan nan nan nan nan nan nan nan nan
19 18 18 18 18 17 18 19 20 20 20 20 21 22 23 25 27 25 24 22 25 23 21 22 22 21 nan nan nan nan nan nan nan nan nan 21 20 nan nan 23 nan nan nan 25 nan nan 30 30 29 nan nan nan nan nan nan 28 29 31 33 33 33 32 29 25 21 19 17 16 19 19 18 17 22 24 26 26 nan nan nan nan nan nan nan nan nan
nan 20 20 20 19 18 18 18 19 21 21 23 24 24 24 24 26 23 21 23 25 22 nan 18 20 21 nan nan nan 25 nan nan nan nan nan 23 24 25 25 25 25 26 nan nan nan nan nan nan nan nan 28 29 nan nan nan 27 23 25 26 24 25 30 32 29 24 20 17 15 16 18 17 16 18 22 24 25 25 25 nan nan nan nan nan nan nan
nan nan nan nan nan nan nan nan 21 21 22 23 23 24 25 25 25 23 23 22 22 20 20 20 22 21 nan 26 27 27 28 nan nan nan nan nan nan nan nan 27 28 nan nan nan nan nan nan nan nan nan nan nan nan nan nan nan nan 23 nan 17 15 24 33 33 29 25 23 19 17 15 17 16 16 23 21 24 24 25 24 nan nan nan nan nan nan
nan nan nan nan nan nan nan nan nan 21 22 23 23 23 24 nan nan 25 24 24 22 22 24 23 26 24 26 28 29 29 nan 30 29 29 nan nan nan nan nan nan nan nan nan nan nan nan nan nan nan nan nan nan nan nan nan nan nan nan 23 nan nan nan 36 38 35 32 29 26 24 21 16 15 17 20 21 22 24 22 23 23 21 19 nan nan nan
nan nan nan nan nan nan nan nan nan nan nan nan nan nan nan nan nan nan nan nan nan 24 25 25 26 27 27 28 29 29 30 29 29 nan nan nan nan nan nan nan nan nan nan nan nan nan nan nan nan nan nan nan nan nan nan nan nan nan nan nan nan 30 34 39 39 37 36 33 28 28 28 27 22 18 20 23 21 19 26 24 21 19 17 17 18
nan nan nan nan nan nan nan nan nan nan nan nan nan nan nan nan nan nan nan nan nan nan nan nan nan nan nan 28 28 28 nan nan nan nan nan nan nan nan nan nan nan nan nan nan nan nan nan nan nan nan nan nan nan nan nan nan nan 34 38 39 36 nan 34 41 44 41 36 nan 34 nan nan 30 29 26 23 23 21 21 25 22 19 20 19 16 16
nan nan nan nan nan nan nan nan nan nan nan nan nan nan nan nan nan nan nan nan nan nan nan nan nan nan nan nan nan nan nan nan nan nan nan nan nan nan nan nan nan nan nan nan nan nan nan nan nan nan nan nan nan nan nan nan nan 32 31 36 38 38 39 43 44 43 39 37 36 32 32 33 32 29 27 25 23 23 23 20 19 19 18 18 16
nan nan nan nan nan nan nan nan nan nan nan nan nan nan nan nan nan nan nan nan nan nan nan nan nan nan nan nan nan nan nan nan nan nan nan nan nan nan nan nan nan nan nan nan nan nan nan nan nan nan nan nan nan nan nan nan nan nan 29 30 39 39 40 41 42 nan nan nan nan nan nan 36 32 27 24 25 25 25 26 25 26 27 26 22 19
nan nan nan nan nan nan nan nan nan nan nan nan nan nan nan nan nan nan nan nan nan nan nan nan nan nan nan nan nan nan nan nan nan nan nan nan nan nan nan nan nan nan nan nan nan nan nan nan nan nan nan nan nan nan nan nan nan nan nan 28 31 37 38 39 nan nan nan nan nan nan nan nan nan 38 37 34 32 32 32 32 30 30 28 26 24
nan nan nan nan nan nan nan nan nan nan nan nan nan nan nan nan nan nan nan nan nan nan nan nan nan nan nan nan nan nan nan nan nan nan nan nan nan nan nan nan nan nan nan nan nan nan nan nan nan nan nan nan nan nan nan nan nan nan nan nan 28 31 34 34 nan nan nan nan nan nan nan nan nan nan nan nan nan 42 40 nan nan nan nan 28 27
nan nan nan nan nan nan nan nan nan nan nan nan nan nan nan nan nan nan nan nan nan nan nan nan nan nan nan nan nan nan nan nan nan nan nan nan nan nan nan nan nan nan nan nan nan nan nan nan nan nan nan nan nan nan nan nan nan nan nan nan nan nan 31 32 nan nan nan nan nan nan nan nan nan nan nan nan nan nan nan nan nan nan nan nan 31
nan nan nan nan nan nan nan nan nan nan nan nan nan nan nan nan nan nan nan nan nan nan nan nan nan nan nan nan nan nan nan nan nan nan nan nan nan nan nan nan nan nan nan nan nan nan nan nan nan nan nan nan nan nan nan nan nan nan nan nan nan nan nan nan nan nan nan nan nan nan nan nan nan nan nan nan nan nan nan nan nan nan nan nan nan
nan nan nan nan nan nan nan nan nan nan nan nan nan nan nan nan nan nan nan nan nan nan nan nan nan nan nan nan nan nan nan nan nan nan nan nan nan nan nan nan nan nan nan nan nan nan nan nan nan nan nan nan nan nan nan nan nan nan nan nan nan nan nan nan nan nan nan nan nan nan nan nan nan nan nan nan nan nan nan nan nan nan nan nan nan
nan nan nan nan nan nan nan nan nan nan nan nan nan nan nan nan nan nan nan nan nan nan nan nan nan nan nan nan nan nan nan nan nan nan nan nan nan nan nan nan nan nan nan nan nan nan nan nan nan nan nan nan nan nan nan nan nan nan nan nan nan nan nan nan nan nan nan nan nan nan nan nan nan nan nan nan nan nan nan nan nan nan nan nan nan
nan nan nan nan nan nan nan nan nan nan nan nan nan nan nan nan nan nan nan nan nan nan nan nan nan nan nan nan nan nan nan nan nan nan nan nan nan nan nan nan nan nan nan nan nan nan nan nan nan nan nan nan nan nan nan nan nan nan nan nan nan nan nan nan nan nan nan nan nan nan nan nan nan nan nan nan nan nan nan nan nan nan nan nan nan
nan nan nan nan nan nan nan nan nan nan nan nan nan nan nan nan nan nan nan nan nan nan nan nan nan nan nan nan nan nan nan nan nan nan nan nan nan nan nan nan nan nan nan nan nan nan nan nan nan nan nan nan nan nan nan nan nan nan nan nan nan nan nan nan nan nan nan nan nan nan nan nan nan nan nan nan nan nan nan nan nan nan nan nan nan
nan nan nan nan nan nan nan nan nan nan nan nan nan nan nan nan nan nan nan nan nan nan nan nan nan nan nan nan nan nan nan nan nan nan nan nan nan nan nan nan nan nan nan nan nan nan nan nan nan nan nan nan nan nan nan nan nan nan nan nan nan nan nan nan nan nan nan nan nan nan nan nan nan nan nan nan nan nan nan nan nan nan nan nan nan
nan nan nan nan nan nan nan nan nan nan nan nan nan nan nan nan nan nan nan nan nan nan nan nan nan nan nan nan nan nan nan nan nan nan nan nan nan nan nan nan nan nan nan nan nan nan nan nan nan nan nan nan nan nan nan nan nan nan nan nan nan nan nan nan nan nan nan nan nan nan nan nan nan nan nan nan nan nan nan nan nan nan nan nan nan
nan nan nan nan nan nan nan nan nan nan nan nan nan nan nan nan nan nan nan nan nan nan nan nan nan nan nan nan nan nan nan nan nan nan nan nan nan nan nan nan nan nan nan nan nan nan nan nan nan nan nan nan nan nan nan nan nan nan nan nan nan nan nan nan nan nan nan nan nan nan nan nan nan nan nan nan nan nan nan nan nan nan nan nan nan
nan nan nan nan nan nan nan nan nan nan nan nan nan nan nan nan nan nan nan nan nan nan nan nan nan nan nan nan nan nan nan nan nan nan nan nan nan nan nan nan nan nan nan nan nan nan nan nan nan nan nan nan nan nan nan nan nan nan nan nan nan nan nan nan nan nan nan nan nan nan nan nan nan nan nan nan nan nan nan nan nan nan nan nan nan
nan nan nan nan nan nan nan nan nan nan nan nan nan nan nan nan nan nan nan nan nan nan nan nan nan nan nan nan nan nan nan nan nan nan nan nan nan nan nan nan nan nan nan nan nan nan nan nan nan nan nan nan nan nan nan nan nan nan nan nan nan nan nan nan nan nan nan nan nan nan nan nan nan nan nan nan nan nan nan nan nan nan nan nan nan
nan nan nan nan nan nan nan nan nan nan nan nan 21 nan nan nan nan nan nan nan nan nan nan nan nan nan nan nan nan nan nan nan nan nan nan nan nan nan nan nan nan nan nan nan nan nan nan nan nan nan nan nan nan nan nan nan nan nan nan nan nan nan nan nan nan nan nan nan nan nan nan nan nan nan nan nan nan nan nan nan nan nan nan nan nan
nan nan nan nan nan nan nan nan nan nan nan 21 22 23 24 25 nan nan nan nan nan 24 nan 26 27 27 nan 28 nan nan nan nan nan nan nan nan nan nan nan nan nan nan nan nan nan nan nan nan nan nan nan nan nan nan nan nan nan nan nan nan nan nan nan nan nan nan nan nan nan nan nan nan nan nan nan nan nan nan nan nan nan nan nan nan nan
nan nan nan nan nan nan 24 25 nan nan nan 18 21 23 25 26 29 30 30 30 29 28 nan 26 24 26 nan 30 nan nan nan nan nan nan nan nan nan nan nan nan nan nan nan nan nan nan nan nan nan nan nan nan nan nan nan nan nan nan nan nan nan nan nan nan nan nan nan nan nan nan nan nan nan nan nan nan nan nan nan nan nan nan nan nan nan
nan nan nan nan nan 32 33 32 nan nan nan 21 24 24 26 27 28 29 31 32 nan nan 32 30 27 nan nan nan nan nan nan nan nan nan nan nan nan nan nan nan nan nan nan nan nan nan nan nan nan nan nan nan nan nan nan nan nan nan nan nan nan nan nan nan nan nan nan nan nan nan nan nan nan nan nan nan nan nan nan nan nan nan nan nan nan
nan 35 37 nan nan nan nan 33 nan nan 27 28 25 25 26 nan nan nan 31 31 33 33 34 34 32 31 33 36 37 37 36 nan 39 nan nan nan nan nan nan nan nan nan nan nan nan nan nan nan nan nan nan nan nan nan nan nan nan nan nan nan nan nan nan nan nan nan nan nan nan nan nan nan nan nan nan nan nan nan nan nan nan nan nan nan nan
33 31 28 29 30 32 34 nan 29 27 28 28 28 27 28 27 29 32 34 34 36 37 37 38 37 38 40 42 43 43 42 43 45 nan nan nan nan nan nan nan nan nan nan nan nan nan nan nan nan nan nan nan nan nan nan nan nan nan nan nan nan nan nan nan nan nan nan nan nan nan nan nan nan nan nan nan nan nan nan nan nan nan nan nan nan
nan nan nan 32 30 nan nan 29 27 27 27 29 29 29 30 30 31 33 35 37 38 39 41 41 42 44 46 47 46 46 45 nan nan nan nan nan nan nan nan nan nan nan nan nan nan nan nan nan nan nan nan nan nan nan nan nan nan nan nan nan nan nan nan nan nan nan nan nan nan nan nan nan nan nan nan nan nan nan nan nan nan nan nan nan nan
37 34 34 32 32 31 29 28 29 32 33 34 32 32 33 33 34 37 37 38 39 41 42 43 44 47 48 48 48 47 46 nan nan nan nan nan nan nan nan nan nan nan nan nan nan nan nan nan nan nan nan nan nan nan nan nan nan nan nan nan nan nan nan nan nan nan nan nan nan nan nan nan nan nan nan nan nan nan nan nan nan nan nan nan nan
36 36 35 34 33 33 32 35 38 39 39 nan nan nan nan nan nan 41 41 43 44 44 44 45 46 46 47 47 47 48 nan nan nan nan nan nan nan nan nan nan nan nan nan nan nan nan nan nan nan nan nan nan nan nan nan nan nan nan nan nan nan nan nan nan nan nan nan nan nan nan nan nan nan nan nan nan nan nan nan nan nan nan nan nan nan
nan nan nan 37 37 36 38 41 43 43 42 42 43 45 nan nan nan nan 45 46 46 46 46 46 47 47 48 49 50 nan nan nan nan nan nan nan nan nan nan nan nan nan nan nan nan nan nan nan nan nan nan nan nan nan nan nan nan nan nan nan nan nan nan nan nan nan nan nan nan nan nan nan nan nan nan nan nan nan nan nan nan nan nan nan nan
nan nan 39 38 38 40 42 43 44 43 43 44 46 53 54 nan nan nan nan nan 48 49 48 nan nan nan nan nan nan nan nan nan nan nan nan nan nan nan nan nan nan nan nan nan nan nan nan nan nan nan nan nan nan nan nan nan nan nan nan nan nan nan nan nan nan nan nan nan nan nan nan nan nan nan nan nan nan nan nan nan nan nan nan nan nan
nan nan nan nan 42 42 42 42 44 46 45 46 49 53 55 nan nan nan nan nan nan nan nan nan nan nan nan nan nan nan nan nan nan nan nan nan nan nan nan nan nan nan nan nan nan nan nan nan nan nan nan nan nan nan nan nan nan nan nan nan nan nan nan nan nan nan nan nan nan nan nan nan nan nan nan nan nan nan nan nan nan nan nan nan nan
nan nan nan nan nan nan 45 46 47 48 48 50 52 52 56 nan nan nan nan nan nan nan nan nan nan nan nan nan nan nan nan nan nan nan nan nan nan nan nan nan nan nan nan nan nan nan nan nan nan nan nan nan nan nan nan nan nan nan nan nan nan nan nan nan nan nan nan nan nan nan nan nan nan nan nan nan nan nan nan nan nan nan nan nan nan
Wind_Direction
272 271 270 274 274 275 274 270 266 262 254 253 256 261 260 259 254 244 236 229 229 228 nan nan nan nan 240 236 237 236 239 241 241 240 239 240 240 242 252 252 253 253 260 263 263 265 262 259 258 260 262 262 262 nan 265 266 267 267 268 266 nan nan nan nan nan nan nan nan nan nan nan nan nan nan nan nan nan nan nan nan nan nan nan nan nan
259 265 273 274 269 263 261 262 262 253 253 254 254 262 267 264 258 254 246 232 226 230 234 230 nan nan nan 236 245 248 246 246 244 244 240 241 238 237 248 247 248 249 255 260 261 261 261 261 260 260 260 263 263 262 nan nan nan 268 268 268 266 nan nan nan nan nan nan nan nan nan nan nan nan nan nan nan nan nan nan nan nan nan nan nan nan
252 246 265 267 262 254 250 251 250 247 245 242 244 253 259 267 269 267 262 243 224 230 236 236 nan nan nan nan 252 nan 252 244 240 242 243 243 239 238 239 247 247 248 250 252 254 261 262 263 262 260 261 263 264 264 262 nan nan 266 270 270 268 nan nan nan nan nan nan nan nan nan nan nan nan nan nan nan nan nan nan nan nan nan nan nan nan
282 272 263 257 252 248 239 240 238 235 237 231 233 239 251 256 263 262 259 260 249 239 245 nan nan 248 nan nan nan nan 257 253 247 246 245 245 244 240 238 241 245 247 249 249 249 256 262 264 265 262 262 265 265 266 265 265 nan nan 265 272 270 267 nan nan nan nan nan nan nan nan nan nan nan nan nan nan nan nan nan nan nan nan nan nan nan
269 256 249 250 245 236 229 233 233 230 231 230 227 229 235 243 252 259 261 263 262 260 259 nan 258 254 257 254 255 257 259 258 254 252 251 248 244 241 240 240 240 243 246 248 247 250 257 261 265 265 262 265 266 266 266 267 264 nan nan 269 270 268 266 nan nan nan nan nan nan nan nan nan nan nan nan nan nan nan nan nan nan nan nan nan nan
258 243 244 244 233 232 228 221 225 228 227 228 229 226 231 243 249 259 262 263 264 266 268 264 nan 258 257 258 256 254 254 251 249 250 250 251 250 246 244 244 242 240 240 243 247 246 248 252 263 265 265 265 265 263 263 265 267 265 nan 267 273 270 268 267 267 nan nan nan nan nan nan nan nan nan nan nan nan nan nan nan nan nan nan nan nan
243 238 235 235 230 221 219 207 214 216 221 221 228 225 235 245 255 255 252 253 256 256 262 263 nan nan 258 257 255 255 255 253 247 245 246 247 249 248 247 249 249 244 240 240 238 240 241 242 255 261 265 266 267 264 261 261 262 265 nan 264 271 273 271 270 271 268 nan nan nan nan nan nan nan nan nan nan nan nan nan nan nan nan nan nan nan
241 236 230 226 228 219 204 204 209 211 211 214 220 227 234 242 246 260 256 251 255 252 254 261 260 263 260 259 256 255 256 252 250 248 244 248 248 248 248 250 252 252 249 244 242 240 236 238 241 251 258 263 267 266 265 262 260 262 265 266 268 270 271 270 274 275 272 nan nan nan nan nan nan nan nan nan nan nan nan nan nan nan nan nan nan
249 243 241 233 223 213 204 206 213 216 208 207 223 221 235 243 240 248 261 261 259 259 254 259 261 261 265 259 256 254 250 249 249 249 247 246 243 248 249 250 251 258 256 252 246 243 239 235 239 242 245 257 261 264 263 263 262 260 262 266 267 272 272 271 270 276 278 277 nan nan nan nan nan nan nan nan nan nan nan nan nan nan nan nan nan
253 248 242 233 230 220 212 208 216 214 213 208 213 222 227 246 245 235 248 263 262 265 262 258 257 256 254 258 259 258 255 252 254 249 248 249 243 236 234 239 253 258 257 253 250 247 242 239 238 240 245 249 255 262 262 259 261 262 262 265 268 272 274 274 271 269 277 281 280 nan nan nan nan nan nan nan nan nan nan nan nan nan nan nan nan
263 259 249 233 230 227 225 224 224 217 226 224 207 212 231 238 257 251 243 245 257 257 260 258 256 251 250 249 250 nan nan nan 257 260 261 257 256 254 248 240 245 253 255 251 248 246 243 240 240 243 245 250 255 255 257 258 257 256 262 265 267 271 273 273 273 274 273 280 283 283 nan nan nan nan nan nan nan nan nan nan nan nan nan nan nan
265 255 245 243 239 236 230 235 236 233 243 250 228 204 231 245 253 258 253 244 241 250 254 253 251 252 249 245 247 nan nan 257 nan nan nan nan nan 265 254 248 246 248 253 253 252 248 245 242 242 244 246 249 255 258 258 256 255 254 254 262 269 270 272 272 272 273 275 276 280 284 284 nan nan nan nan nan nan nan nan nan nan nan nan nan nan
268 257 249 247 243 246 246 245 243 239 242 249 242 223 223 226 238 246 252 248 238 239 245 246 248 241 238 242 244 246 249 nan nan nan nan nan nan nan nan nan 245 246 248 251 251 247 245 242 241 243 246 249 250 255 259 260 259 257 263 261 267 271 270 270 272 274 275 276 276 280 283 nan nan nan nan nan nan nan nan nan nan nan nan nan nan
271 263 253 251 251 248 245 243 239 234 230 227 233 235 237 233 230 242 232 241 239 238 237 242 237 244 241 nan nan 237 241 246 250 nan nan nan nan nan nan nan nan nan 244 249 249 244 241 239 241 240 242 244 248 250 251 255 257 260 262 264 264 262 265 266 268 272 274 275 277 276 280 285 nan nan nan nan nan nan nan nan nan nan nan nan nan
265 263 258 252 254 255 250 242 239 235 234 230 239 237 253 248 235 238 242 237 239 235 239 245 246 241 241 nan nan nan 235 nan 245 249 249 nan nan nan nan nan nan nan 241 244 246 248 250 243 241 243 245 245 246 248 251 253 254 257 259 260 262 260 259 261 255 262 274 276 277 279 277 284 284 nan nan nan nan nan nan nan nan nan nan nan nan
256 256 255 254 254 255 252 251 250 249 251 248 244 245 246 241 243 243 247 245 238 239 241 247 250 251 242 nan nan nan nan nan nan nan nan 244 nan nan 240 nan nan nan nan nan 240 241 nan 247 244 246 243 243 245 246 248 251 250 254 258 259 259 260 260 259 264 266 268 271 275 278 277 279 285 289 nan nan nan nan nan nan nan nan nan nan nan
247 250 253 254 251 252 253 253 254 254 253 251 247 245 244 248 247 245 239 248 246 241 237 237 244 nan nan nan nan nan nan nan nan nan 249 nan nan nan 247 nan nan nan nan nan 244 243 245 249 nan nan 253 250 248 245 244 248 252 253 252 253 254 254 256 258 259 260 265 271 273 271 274 281 287 292 292 nan nan nan nan nan nan nan nan nan nan
246 244 244 247 245 245 248 252 254 254 253 251 249 246 245 244 243 240 239 239 247 246 241 234 240 243 nan nan nan nan nan nan nan nan nan 260 255 nan nan 254 nan nan nan 247 nan nan 242 243 245 nan nan nan nan nan nan 252 253 254 258 256 252 249 248 250 252 254 259 262 270 275 271 275 287 291 289 289 nan nan nan nan nan nan nan nan nan
nan 250 247 245 244 241 245 246 248 249 247 248 245 244 241 242 247 248 247 244 246 251 nan 250 239 240 nan nan nan 252 nan nan nan nan nan 256 258 258 259 257 256 255 nan nan nan nan nan nan nan nan 254 259 nan nan nan 254 249 251 248 244 253 254 250 248 250 251 251 253 255 260 270 281 284 285 287 288 291 293 nan nan nan nan nan nan nan
nan nan nan nan nan nan nan nan 244 244 245 245 246 244 243 239 243 247 246 246 250 254 259 259 265 254 nan 249 249 249 251 nan nan nan nan nan nan nan nan 254 256 nan nan nan nan nan nan nan nan nan nan nan nan nan nan nan nan 253 nan 247 237 245 241 240 241 242 244 240 243 253 264 267 272 268 276 286 290 292 295 nan nan nan nan nan nan
nan nan nan nan nan nan nan nan nan 245 248 249 246 247 248 nan nan 248 250 250 252 254 258 258 258 262 259 252 252 252 nan 252 256 257 nan nan nan nan nan nan nan nan nan nan nan nan nan nan nan nan nan nan nan nan nan nan nan nan 255 nan nan nan 241 231 233 234 235 236 232 233 242 259 265 272 277 275 275 284 290 292 290 290 nan nan nan
nan nan nan nan nan nan nan nan nan nan nan nan nan nan nan nan nan nan nan nan nan 250 253 254 254 256 257 264 259 256 254 254 254 nan nan nan nan nan nan nan nan nan nan nan nan nan nan nan nan nan nan nan nan nan nan nan nan nan nan nan nan 250 244 241 238 239 240 237 235 236 236 237 245 259 268 279 284 286 283 283 286 291 293 296 298
nan nan nan nan nan nan nan nan nan nan nan nan nan nan nan nan nan nan nan nan nan nan nan nan nan nan nan 259 264 265 nan nan nan nan nan nan nan nan nan nan nan nan nan nan nan nan nan nan nan nan nan nan nan nan nan nan nan 236 243 251 251 nan 240 233 229 229 228 nan 235 nan nan 250 251 253 254 266 273 275 281 287 292 294 295 292 297
nan nan nan nan nan nan nan nan nan nan nan nan nan nan nan nan nan nan nan nan nan nan nan nan nan nan nan nan nan nan nan nan nan nan nan nan nan nan nan nan nan nan nan nan nan nan nan nan nan nan nan nan nan nan nan nan nan 233 246 246 248 244 239 234 230 229 226 226 236 237 238 242 242 242 248 247 240 247 255 259 263 272 282 282 290
nan nan nan nan nan nan nan nan nan nan nan nan nan nan nan nan nan nan nan nan nan nan nan nan nan nan nan nan nan nan nan nan nan nan nan nan nan nan nan nan nan nan nan nan nan nan nan nan nan nan nan nan nan nan nan nan nan nan 240 246 244 242 240 237 234 nan nan nan nan nan nan 240 241 242 248 252 249 244 250 251 251 256 260 266 265
nan nan nan nan nan nan nan nan nan nan nan nan nan nan nan nan nan nan nan nan nan nan nan nan nan nan nan nan nan nan nan nan nan nan nan nan nan nan nan nan nan nan nan nan nan nan nan nan nan nan nan nan nan nan nan nan nan nan nan 243 242 241 237 233 nan nan nan nan nan nan nan nan nan 240 241 247 252 255 254 254 252 254 263 270 273
nan nan nan nan nan nan nan nan nan nan nan nan nan nan nan nan nan nan nan nan nan nan nan nan nan nan nan nan nan nan nan nan nan nan nan nan nan nan nan nan nan nan nan nan nan nan nan nan nan nan nan nan nan nan nan nan nan nan nan nan 248 243 240 235 nan nan nan nan nan nan nan nan nan nan nan nan nan 245 246 nan nan nan nan 262 269
nan nan nan nan nan nan nan nan nan nan nan nan nan nan nan nan nan nan nan nan nan nan nan nan nan nan nan nan nan nan nan nan nan nan nan nan nan nan nan nan nan nan nan nan nan nan nan nan nan nan nan nan nan nan nan nan nan nan nan nan nan nan 237 236 nan nan nan nan nan nan nan nan nan nan nan nan nan nan nan nan nan nan nan nan 263
nan nan nan nan nan nan nan nan nan nan nan nan nan nan nan nan nan nan nan nan nan nan nan nan nan nan nan nan nan nan nan nan nan nan nan nan nan nan nan nan nan nan nan nan nan nan nan nan nan nan nan nan nan nan nan nan nan nan nan nan nan nan nan nan nan nan nan nan nan nan nan nan nan nan nan nan nan nan nan nan nan nan nan nan nan
nan nan nan nan nan nan nan nan nan nan nan nan nan nan nan nan nan nan nan nan nan nan nan nan nan nan nan nan nan nan nan nan nan nan nan nan nan nan nan nan nan nan nan nan nan nan nan nan nan nan nan nan nan nan nan nan nan nan nan nan nan nan nan nan nan nan nan nan nan nan nan nan nan nan nan nan nan nan nan nan nan nan nan nan nan
nan nan nan nan nan nan nan nan nan nan nan nan nan nan nan nan nan nan nan nan nan nan nan nan nan nan nan nan nan nan nan nan nan nan nan nan nan nan nan nan nan nan nan nan nan nan nan nan nan nan nan nan nan nan nan nan nan nan nan nan nan nan nan nan nan nan nan nan nan nan nan nan nan nan nan nan nan nan nan nan nan nan nan nan nan
nan nan nan nan nan nan nan nan nan nan nan nan nan nan nan nan nan nan nan nan nan nan nan nan nan nan nan nan nan nan nan nan nan nan nan nan nan nan nan nan nan nan nan nan nan nan nan nan nan nan nan nan nan nan nan nan nan nan nan nan nan nan nan nan nan nan nan nan nan nan nan nan nan nan nan nan nan nan nan nan nan nan nan nan nan
nan nan nan nan nan nan nan nan nan nan nan nan nan nan nan nan nan nan nan nan nan nan nan nan nan nan nan nan nan nan nan nan nan nan nan nan nan nan nan nan nan nan nan nan nan nan nan nan nan nan nan nan nan nan nan nan nan nan nan nan nan nan nan nan nan nan nan nan nan nan nan nan nan nan nan nan nan nan nan nan nan nan nan nan nan
nan nan nan nan nan nan nan nan nan nan nan nan nan nan nan nan nan nan nan nan nan nan nan nan nan nan nan nan nan nan nan nan nan nan nan nan nan nan nan nan nan nan nan nan nan nan nan nan nan nan nan nan nan nan nan nan nan nan nan nan nan nan nan nan nan nan nan nan nan nan nan nan nan nan nan nan nan nan nan nan nan nan nan nan nan
nan nan nan nan nan nan nan nan nan nan nan nan nan nan nan nan nan nan nan nan nan nan nan nan nan nan nan nan nan nan nan nan nan nan nan nan nan nan nan nan nan nan nan nan nan nan nan nan nan nan nan nan nan nan nan nan nan nan nan nan nan nan nan nan nan nan nan nan nan nan nan nan nan nan nan nan nan nan nan nan nan nan nan nan nan
nan nan nan nan nan nan nan nan nan nan nan nan nan nan nan nan nan nan nan nan nan nan nan nan nan nan nan nan nan nan nan nan nan nan nan nan nan nan nan nan nan nan nan nan nan nan nan nan nan nan nan nan nan nan nan nan nan nan nan nan nan nan nan nan nan nan nan nan nan nan nan nan nan nan nan nan nan nan nan nan nan nan nan nan nan
nan nan nan nan nan nan nan nan nan nan nan nan nan nan nan nan nan nan nan nan nan nan nan nan nan nan nan nan nan nan nan nan nan nan nan nan nan nan nan nan nan nan nan nan nan nan nan nan nan nan nan nan nan nan nan nan nan nan nan nan nan nan nan nan nan nan nan nan nan nan nan nan nan nan nan nan nan nan nan nan nan nan nan nan nan
nan nan nan nan nan nan nan nan nan nan nan nan nan nan nan nan nan nan nan nan nan nan nan nan nan nan nan nan nan nan nan nan nan nan nan nan nan nan nan nan nan nan nan nan nan nan nan nan nan nan nan nan nan nan nan nan nan nan nan nan nan nan nan nan nan nan nan nan nan nan nan nan nan nan nan nan nan nan nan nan nan nan nan nan nan
nan nan nan nan nan nan nan nan nan nan nan nan 277 nan nan nan nan nan nan nan nan nan nan nan nan nan nan nan nan nan nan nan nan nan nan nan nan nan nan nan nan nan nan nan nan nan nan nan nan nan nan nan nan nan nan nan nan nan nan nan nan nan nan nan nan nan nan nan nan nan nan nan nan nan nan nan nan nan nan nan nan nan nan nan nan
nan nan nan nan nan nan nan nan nan nan nan 276 280 282 279 274 nan nan nan nan nan 280 nan 280 270 268 nan 273 nan nan nan nan nan nan nan nan nan nan nan nan nan nan nan nan nan nan nan nan nan nan nan nan nan nan nan nan nan nan nan nan nan nan nan nan nan nan nan nan nan nan nan nan nan nan nan nan nan nan nan nan nan nan nan nan nan
nan nan nan nan nan nan 258 269 nan nan nan 271 277 282 285 282 279 278 279 282 282 280 nan 283 272 267 nan 272 nan nan nan nan nan nan nan nan nan nan nan nan nan nan nan nan nan nan nan nan nan nan nan nan nan nan nan nan nan nan nan nan nan nan nan nan nan nan nan nan nan nan nan nan nan nan nan nan nan nan nan nan nan nan nan nan nan
nan nan nan nan nan 274 277 278 nan nan nan 273 274 282 288 285 283 282 281 282 nan nan 283 283 278 nan nan nan nan nan nan nan nan nan nan nan nan nan nan nan nan nan nan nan nan nan nan nan nan nan nan nan nan nan nan nan nan nan nan nan nan nan nan nan nan nan nan nan nan nan nan nan nan nan nan nan nan nan nan nan nan nan nan nan nan
nan 279 276 nan nan nan nan 275 nan nan 280 281 277 277 281 nan nan nan 280 281 281 281 282 283 284 282 279 278 277 281 283 nan 278 nan nan nan nan nan nan nan nan nan nan nan nan nan nan nan nan nan nan nan nan nan nan nan nan nan nan nan nan nan nan nan nan nan nan nan nan nan nan nan nan nan nan nan nan nan nan nan nan nan nan nan nan
272 269 272 277 274 274 276 nan 275 277 279 279 277 279 282 282 281 277 275 275 276 276 277 278 279 279 279 278 277 277 278 279 278 nan nan nan nan nan nan nan nan nan nan nan nan nan nan nan nan nan nan nan nan nan nan nan nan nan nan nan nan nan nan nan nan nan nan nan nan nan nan nan nan nan nan nan nan nan nan nan nan nan nan nan nan
nan nan nan 275 279 nan nan 277 279 280 279 273 272 278 283 284 284 281 275 275 274 273 273 274 274 275 276 278 277 277 276 nan nan nan nan nan nan nan nan nan nan nan nan nan nan nan nan nan nan nan nan nan nan nan nan nan nan nan nan nan nan nan nan nan nan nan nan nan nan nan nan nan nan nan nan nan nan nan nan nan nan nan nan nan nan
274 275 275 276 275 279 284 285 283 278 277 273 274 277 280 282 279 278 272 271 271 271 272 273 274 275 277 279 278 277 276 nan nan nan nan nan nan nan nan nan nan nan nan nan nan nan nan nan nan nan nan nan nan nan nan nan nan nan nan nan nan nan nan nan nan nan nan nan nan nan nan nan nan nan nan nan nan nan nan nan nan nan nan nan nan
280 280 281 281 283 287 288 285 285 284 282 nan nan nan nan nan nan 278 273 271 270 270 270 273 275 276 277 278 279 279 nan nan nan nan nan nan nan nan nan nan nan nan nan nan nan nan nan nan nan nan nan nan nan nan nan nan nan nan nan nan nan nan nan nan nan nan nan nan nan nan nan nan nan nan nan nan nan nan nan nan nan nan nan nan nan
nan nan nan 275 281 283 282 284 284 283 283 280 285 287 nan nan nan nan 274 273 272 271 271 271 273 274 276 278 278 nan nan nan nan nan nan nan nan nan nan nan nan nan nan nan nan nan nan nan nan nan nan nan nan nan nan nan nan nan nan nan nan nan nan nan nan nan nan nan nan nan nan nan nan nan nan nan nan nan nan nan nan nan nan nan nan
nan nan 270 273 276 280 283 283 284 284 283 281 284 288 288 nan nan nan nan nan 272 271 269 nan nan nan nan nan nan nan nan nan nan nan nan nan nan nan nan nan nan nan nan nan nan nan nan nan nan nan nan nan nan nan nan nan nan nan nan nan nan nan nan nan nan nan nan nan nan nan nan nan nan nan nan nan nan nan nan nan nan nan nan nan nan
nan nan nan nan 273 276 280 282 283 285 284 283 285 289 291 nan nan nan nan nan nan nan nan nan nan nan nan nan nan nan nan nan nan nan nan nan nan nan nan nan nan nan nan nan nan nan nan nan nan nan nan nan nan nan nan nan nan nan nan nan nan nan nan nan nan nan nan nan nan nan nan nan nan nan nan nan nan nan nan nan nan nan nan nan nan
nan nan nan nan nan nan 275 278 276 280 282 279 281 286 288 nan nan nan nan nan nan nan nan nan nan nan nan nan nan nan nan nan nan nan nan nan nan nan nan nan nan nan nan nan nan nan nan nan nan nan nan nan nan nan nan nan nan nan nan nan nan nan nan nan nan nan nan nan nan nan nan nan nan nan nan nan nan nan nan nan nan nan nan nan nan